Regional Weather Roundup
Issued by NWS

Home | Current Version | Previous Version | Text Only | Print | Product List | Glossary On
Versions: 1 2 3 4 5 6 7 8 9 10 11 12 13 14 15 16 17 18 19 20 21 22 23 24 25 26 27 28 29 30 31 32 33 34 35 36 37 38 39 40 41 42 43 44 45 46 47 48 49 50
000
ASUS46 KSEW 211410
RWRWA

WASHINGTON REGIONAL WEATHER ROUNDUP
NATIONAL WEATHER SERVICE SEATTLE WA
700 AM PDT THU SEP 21 2017

NOTE:"FAIR" INDICATES FEW OR NO CLOUDS BELOW 12,000 FEET WITH NO
SIGNIFICANT WEATHER AND/OR OBSTRUCTIONS TO VISIBILITY.

WAZ507-509-555>559-211500-
SEATTLE, TACOMA, EVERETT, AND VICINITY

CITY           SKY/WX    TMP DP  RH WIND       PRES   REMARKS
EVERETT        CLOUDY    50  48  93 CALM      29.90R
BOEING FIELD   CLOUDY    51  50  96 SE6       29.90R
RENTON         LGT RAIN  51  50  96 SE3       29.90R
SEATAC AIRPORT CLOUDY    50  49  96 S6        29.90R
JBLM-MCCHORD   CLOUDY    48  48 100 CALM      29.90R
PUYALLUP       CLOUDY    48  48 100 CALM      29.90R
BREMERTON      FOG       48  47  96 S5        29.90R VSB 1/4
JBLM-FT LEWIS  CLOUDY    48  48 100 SE6       29.89R
TACOMA NARROWS CLOUDY    50  49  96 CALM      29.90R
$$

WAZ001-503-506-510-514-515-211500-
NORTH INTERIOR

CITY           SKY/WX    TMP DP  RH WIND       PRES   REMARKS
BELLINGHAM     CLOUDY    49  49 100 W5        29.90R
FRIDAY HARBOR  CLOUDY    47  47 100 CALM      29.91R
EASTSOUND      CLOUDY    52  48  87 NE3       29.91R
PORT ANGELES   CLOUDY    49  43  80 CALM      29.90S
EDIZ HOOK      FAIR      49  45  87 W5        29.90S
PORT TOWNSEND  CLOUDY    48  46  93 CALM      29.90R
NAS WHIDBEY    CLOUDY    51  45  79 CALM      29.94R
ARLINGTON      CLOUDY    50  49  96 CALM      29.90R
BURLINGTON     MOCLDY    48  48 100 CALM      29.90R
$$

WAZ020-022-039-040-504-511-512-211500-
SOUTHWEST INTERIOR

CITY           SKY/WX    TMP DP  RH WIND       PRES   REMARKS
SHELTON        CLOUDY    49  48  97 CALM      29.88R
OLYMPIA        CLOUDY    48  48 100 W3        29.90R
CHEHALIS         N/A     50  50 100 S5        29.90S
KELSO          CLOUDY    51  48  89 SE6       29.92S
VANCOUVER      CLOUDY    51  49  92 CALM      29.92R
SCAPPOOSE, OR  CLOUDY    47  47 100 CALM      29.92R
PORTLAND, OR   CLOUDY    50  48  93 S5        29.93R
$$

WAZ021-516-517-211500-
WASHINGTON COAST

CITY           SKY/WX    TMP DP  RH WIND       PRES   REMARKS
FORKS          CLOUDY    43  41  93 CALM      29.89R
HOQUIAM        CLOUDY    48  47  96 NE3       29.89R
ASTORIA, OR    CLOUDY    46  44  93 E3        29.88S
$$

WAZ019-023-024-040-567>569-211500-
CASCADE MOUNTAINS AND COLUMBIA GORGE

CITY           SKY/WX    TMP DP  RH WIND       PRES   REMARKS
STAMPEDE PASS  NOT AVBL
TROUTDALE, OR  CLOUDY    50  48  93 SE3       29.93R
HOOD RIVER, OR NOT AVBL
THE DALLES, OR MOCLDY    50  44  80 W6        29.88R
$$

WAZ026-027-041>044-520-521-211500-
EAST SLOPES

CITY           SKY/WX    TMP DP  RH WIND       PRES   REMARKS
OMAK           CLOUDY    46  44  93 NW7       29.85R
WENATCHEE      CLOUDY    47  41  80 E5        29.83R
ELLENSBURG     CLOUDY    44  37  76 SE5       29.84R
YAKIMA         CLOUDY    41  37  86 W3        29.86R
SUNNYSIDE ARPT PTSUNNY   35  34  97 CALM      29.86R
YAKIMA TC      PTSUNNY   41  37  86 CALM      29.83R
$$

WAZ028-034-035-211500-
COLUMBIA BASIN

CITY           SKY/WX    TMP DP  RH WIND       PRES   REMARKS
EPHRATA        CLOUDY    44  38  79 N6        29.84R
MOSES LAKE     CLOUDY    39  37  92 N5        29.85R
PASCO          PTCLDY    37  35  92 CALM      29.86R
RICHLAND ARPT  MOSUNNY   44  41  89 CALM      29.86R
HERMISTON, OR  CLEAR     43  39  86 CALM      29.87R
$$

WAZ036>038-211500-
NORTHEAST WASHINGTON

CITY           SKY/WX    TMP DP  RH WIND       PRES   REMARKS
SPOKANE GEIGER RAIN      42  42 100 SW8       29.84R FOG
SPOKANE FELTS  LGT RAIN  45  43  93 NW3       29.85R FOG
FAIRCHILD AFB  LGT RAIN  40  40 100 SW5       29.83R FOG
COEURDALENE,ID CLOUDY    44  41  89 S3        29.84R
DEER PARK      CLOUDY    42  41  96 S3        29.84R
$$

WAZ029>033-211500-
SOUTHEAST WASHINGTON

CITY           SKY/WX    TMP DP  RH WIND       PRES   REMARKS
PULLMAN        CLEAR     38  35  89 CALM      29.85R
LEWISTON, ID   CLOUDY    45  42  89 S3        29.86R
WALLA WALLA    CLEAR     46  40  79 S8        29.87R
PENDLETON, OR  PTCLDY    47  38  71 SW3       29.86R
$$



USA.gov is the U.S. government's official web portal to all federal, state and local government web resources and services.